Regional Weather Roundup
Issued by NWS Portland, ME

Current Version | Previous Version | Text Only | Print | Product List | Glossary Off
Versions: 1 2 3 4 5 6 7 8 9 10 11 12 13 14 15 16 17 18 19 20 21 22 23 24 25 26 27 28 29 30 31 32 33 34 35 36 37 38 39 40 41 42 43 44 45 46 47 48 49 50
000 ASUS41 KGYX 220210 RWRGYX WEATHER ROUNDUP FOR MAINE AND NEW HAMPSHIRE NATIONAL WEATHER SERVICE GRAY ME 1000 PM EDT THU MAR 21 2019 MEZ002-005-006-010-012-015-018-020-021-024-026-027-029-220300- MAINE CITY SKY/WX TMP DP RH WIND PRES REMARKS PORTLAND CLOUDY 38 34 85 E5 30.00F WISCASSET FAIR 38 34 85 E5 30.04F FRYEBURG NOT AVBL AUGUSTA CLOUDY 36 31 82 S6 30.02F BANGOR CLOUDY 37 28 70 SE7 30.05F GREENVILLE N/A 34 20 56 VRB3 29.93F MILLINOCKET FAIR 37 21 52 S6 30.02F HOULTON FAIR 37 20 50 S6 30.00F PRESQUE ISLE NOT AVBL FRENCHVILLE MOCLDY 40 20 44 S10 29.90F CARIBOU NOT AVBL $$ NHZ002-005-008-009-011-012-014-220300- NEW HAMPSHIRE CITY SKY/WX TMP DP RH WIND PRES REMARKS ROCHESTER FAIR 37 33 85 E3 29.96F MANCHESTER CLOUDY 41 32 70 E8 29.90F CONCORD CLOUDY 39 31 72 SE5 29.94F PLYMOUTH CLOUDY 39 25 57 CALM 29.94F BERLIN CLOUDY 38 28 67 SE6 29.92F WHITEFIELD LGT RAIN 41 30 65 S7 29.90F JAFFREY FAIR 39 26 59 CALM 29.87F LEBANON CLOUDY 37 31 78 NE3 29.89F MT WASHINGTON SNOW 25 25 100 S38 N/A VSB 1/16WCI 6 $$ VTZ005-007-008-220300- VERMONT CITY SKY/WX TMP DP RH WIND PRES REMARKS ST JOHNSBURY N/A 38 33 82 MISG 29.90F MONTPELIER LGT RAIN 34 34 100 S6 29.92F $$ MAZ007-012-024-CTZ003-RIZ002-NYZ038-NYZ072-220300- SOUTHERN NEW ENGLAND AND NY CITY SKY/WX TMP DP RH WIND PRES REMARKS NANTUCKET FAIR 43 39 86 E18G25 29.86F PROVIDENCE CLOUDY 42 35 76 E8 29.89F HARTFORD CLOUDY 45 35 68 E8 29.85F ALBANY CLOUDY 39 35 86 N3 29.84F NEW YORK CITY LGT RAIN 41 37 86 NE20G29 29.73F $$ ANZ081-ANZ082-ANZ150-NHZ014-MEZ023>029-220300- COASTAL MARINE OBSERVATIONS STATION/POSITION TIME TEMP WIND PRES WAVE AIR SEA DIR/SP/G HT/PER (UTC) (F) (DEG/KT/KT) (MB) (FT/S) CASHES LEDGE BUO 0050 39 40 1017.7 3/ 5 $$ .............KEY.............. WCI - WIND CHILL TC - TEMPERATURE IN CELSIUS VSB - VISIBILITY IN MILES HX - HEAT INDEX FAIR- INDICATES FEW OR NO CLOUDS BELOW 12,000 FT, WITH NO SIGNIFICANT WEATHER AND/OR OBSTRUCTIONS TO VISIBILITY.

USA.gov is the U.S. government's official web portal to all federal, state and local government web resources and services.